Location: *
(31.2983°S, 151.4094°E)
Time: 15:24:05
(UTC+00:00)

Okean-O - Pass Details

Date: 25 August 2019
Orbit: 639 x 641 km, 98.2° (Epoch: 17 September)

Event Time Altitude Azimuth Distance (km) Brightness Sun altitude
Rises 19:35:42 0° 15° (NNE) 2,929 6.3 -9.9°
Reaches altitude 10° 19:37:53 10° 15° (NNE) 2,029 5.5 -9.4°
Maximum altitude 19:42:19 84° 103° (ESE) 654 2.7 -8.5°
Drops below altitude 10° 19:46:49 10° 191° (S) 2,059 5.1 -7.5°
Sets 19:49:02 0° 191° (S) 2,976 5.9 -7.1°
